Tracking 18980 objects as of 20-Feb-2018
HD Live streaming from Space Station
objects crossing your sky now

FENGYUN 1C DEB

Track FENGYUN 1C DEB now!
10-day predictions


NORAD ID: 32190
Int'l Code: 1999-025CUL
Perigee: 691.9 km
Apogee: 779.5 km
Inclination: 99.0 °
Period: 99.4 minutes
Semi major axis: 7106 km
RCS: 0.0105 m2 (small)
Launch date: May 10, 1999
Source: People's Republic of China (PRC)
Launch site: Taiyaun Space Center, China (TSC)

Note: This is SATELLITE DEBRIS
aabbcc
Your satellite tracking list
Your tracking list is empty




NASA's NSSDC Master Catalog

Two Line Element Set (TLE):
1 32190U 99025CUL 18050.35512749 +.00001353 +00000-0 +36109-3 0  9994
2 32190 098.9844 257.8222 0061605 001.0182 359.1124 14.49107463297931
Source of the keplerian elements: AFSPC